SAS147 LFPG-ESSA

Flight info

Callsign SAS147
Flight time 2h 14m
Altitude 34000
Route NURMO DCT CMB DCT VEKIN DCT ADUTO N873 VICOT DCT AMRAK/N0449F350 DCT MIKNA N851 PELUP Z226 NILUG
Aircraft A21N/M-SDE3FGHIRWY/LB1

Departure

Time 2026-05-07 15:31
Airport Charles de Gaulle International Airport (LFPG)

Arrival

Time 2026-05-07 17:45
Airport Stockholm-Arlanda Airport (ESSA)
Time Latitude Longitude Altitude Speed Heading
2026-05-07 14:58 49.00540 2.56401 337 ft 0 kts 226°
2026-05-07 15:15 49.00540 2.56402 337 ft 1 kts 226°
2026-05-07 15:16 49.00552 2.56416 337 ft 2 kts 205°
2026-05-07 15:16 49.00566 2.56423 337 ft 2 kts 189°
2026-05-07 15:16 49.00581 2.56424 337 ft 2 kts 170°
2026-05-07 15:16 49.00596 2.56420 337 ft 2 kts 173°
2026-05-07 15:17 49.00611 2.56421 337 ft 2 kts 206°
2026-05-07 15:17 49.00623 2.56435 337 ft 2 kts 237°
2026-05-07 15:17 49.00628 2.56452 337 ft 0 kts 262°
2026-05-07 15:17 49.00628 2.56462 337 ft 1 kts 265°
2026-05-07 15:18 49.00628 2.56463 337 ft 0 kts 265°
2026-05-07 15:19 49.00628 2.56455 337 ft 4 kts 265°
2026-05-07 15:20 49.00622 2.56363 337 ft 11 kts 265°
2026-05-07 15:20 49.00615 2.56233 337 ft 12 kts 266°
2026-05-07 15:20 49.00605 2.56091 337 ft 14 kts 257°
2026-05-07 15:20 49.00575 2.55943 337 ft 14 kts 258°
2026-05-07 15:21 49.00565 2.55789 337 ft 14 kts 266°
2026-05-07 15:21 49.00556 2.55634 337 ft 14 kts 265°
2026-05-07 15:21 49.00549 2.55479 338 ft 13 kts 266°
2026-05-07 15:21 49.00506 2.55354 337 ft 14 kts 212°
2026-05-07 15:22 49.00409 2.55346 337 ft 14 kts 163°
2026-05-07 15:22 49.00311 2.55388 336 ft 14 kts 165°
2026-05-07 15:22 49.00206 2.55434 334 ft 16 kts 164°
2026-05-07 15:22 49.00096 2.55482 333 ft 16 kts 165°
2026-05-07 15:23 49.00015 2.55505 333 ft 11 kts 191°
2026-05-07 15:23 48.99982 2.55404 333 ft 12 kts 265°
2026-05-07 15:23 48.99974 2.55276 333 ft 12 kts 265°
2026-05-07 15:23 48.99968 2.55146 333 ft 12 kts 267°
2026-05-07 15:24 48.99948 2.55023 333 ft 9 kts 223°
2026-05-07 15:24 48.99931 2.55008 333 ft 0 kts 200°
2026-05-07 15:24 48.99927 2.55007 333 ft 0 kts 191°
2026-05-07 15:24 48.99918 2.55006 333 ft 2 kts 178°
2026-05-07 15:25 48.99909 2.55008 333 ft 3 kts 171°
2026-05-07 15:25 48.99879 2.55018 333 ft 5 kts 165°
2026-05-07 15:25 48.99851 2.55031 333 ft 6 kts 164°
2026-05-07 15:26 48.99832 2.55039 333 ft 7 kts 164°
2026-05-07 15:26 48.99778 2.55063 332 ft 9 kts 164°
2026-05-07 15:26 48.99714 2.55091 331 ft 10 kts 164°
2026-05-07 15:27 48.99675 2.55113 330 ft 0 kts 150°
2026-05-07 15:28 48.99672 2.55117 330 ft 2 kts 144°
2026-05-07 15:28 48.99649 2.55162 330 ft 8 kts 117°
2026-05-07 15:28 48.99619 2.55260 330 ft 11 kts 115°
2026-05-07 15:28 48.99587 2.55360 330 ft 8 kts 116°
2026-05-07 15:29 48.99577 2.55431 330 ft 3 kts 85°
2026-05-07 15:29 48.99578 2.55436 330 ft 0 kts 85°
2026-05-07 15:30 48.99578 2.55439 330 ft 1 kts 85°
2026-05-07 15:30 48.99582 2.55502 330 ft 19 kts 85°
2026-05-07 15:30 48.99614 2.56118 329 ft 94 kts 86°
2026-05-07 15:30 48.99683 2.57430 327 ft 154 kts 85°
2026-05-07 15:31 48.99784 2.59271 564 ft 181 kts 85°
2026-05-07 15:31 48.99891 2.61159 1175 ft 185 kts 85°
2026-05-07 15:31 48.99996 2.63098 1882 ft 186 kts 85°
2026-05-07 15:31 49.00100 2.65058 2582 ft 188 kts 86°
2026-05-07 15:32 49.00203 2.67033 3257 ft 189 kts 85°
2026-05-07 15:32 49.00309 2.69037 3841 ft 196 kts 85°
2026-05-07 15:32 49.00422 2.71177 4264 ft 212 kts 85°
2026-05-07 15:32 49.00542 2.73503 4670 ft 230 kts 85°
2026-05-07 15:33 49.00674 2.76047 5016 ft 252 kts 85°
2026-05-07 15:33 49.00816 2.78790 5516 ft 268 kts 85°
2026-05-07 15:33 49.00962 2.81630 6258 ft 274 kts 85°
2026-05-07 15:33 49.01310 2.84470 7041 ft 277 kts 65°
2026-05-07 15:34 49.02482 2.86748 7801 ft 279 kts 36°
2026-05-07 15:34 49.04234 2.87937 8539 ft 282 kts
2026-05-07 15:34 49.06177 2.87879 9268 ft 284 kts 353°
2026-05-07 15:34 49.08146 2.87511 9982 ft 288 kts 353°
2026-05-07 15:35 49.10152 2.87164 10568 ft 296 kts 354°
2026-05-07 15:35 49.12255 2.86814 10904 ft 313 kts 354°
2026-05-07 15:35 49.14473 2.86453 11213 ft 330 kts 354°
2026-05-07 15:35 49.16805 2.86078 11512 ft 347 kts 354°
2026-05-07 15:36 49.19248 2.85687 11890 ft 359 kts 354°
2026-05-07 15:36 49.21744 2.85289 12515 ft 364 kts 354°
2026-05-07 15:36 49.24267 2.84887 13193 ft 367 kts 354°
2026-05-07 15:36 49.26837 2.84477 13844 ft 370 kts 354°
2026-05-07 15:37 49.28867 2.84153 14337 ft 373 kts 354°
2026-05-07 15:37 49.30319 2.83921 14697 ft 375 kts 354°
2026-05-07 15:37 49.32930 2.83505 15303 ft 378 kts 354°
2026-05-07 15:37 49.35558 2.83085 15894 ft 381 kts 354°
2026-05-07 15:38 49.38213 2.82660 16473 ft 384 kts 354°
2026-05-07 15:38 49.40865 2.82237 17038 ft 388 kts 354°
2026-05-07 15:38 49.43571 2.81807 17599 ft 391 kts 353°
2026-05-07 15:38 49.46261 2.81379 18145 ft 395 kts 353°
2026-05-07 15:39 49.48998 2.80941 18691 ft 398 kts 353°
2026-05-07 15:39 49.51772 2.80494 19231 ft 401 kts 352°
2026-05-07 15:39 49.54525 2.80046 19744 ft 404 kts 352°
2026-05-07 15:39 49.57341 2.79587 20267 ft 407 kts 353°
2026-05-07 15:40 49.60139 2.79132 20766 ft 409 kts 353°
2026-05-07 15:40 49.62983 2.78672 21260 ft 412 kts 352°
2026-05-07 15:40 49.65845 2.78209 21740 ft 414 kts 353°
2026-05-07 15:40 49.68687 2.77750 22198 ft 417 kts 352°
2026-05-07 15:41 49.71587 2.77280 22651 ft 420 kts 352°
2026-05-07 15:41 49.74506 2.76807 23093 ft 422 kts 352°
2026-05-07 15:41 49.77405 2.76336 23513 ft 425 kts 352°
2026-05-07 15:41 49.80367 2.76076 23890 ft 430 kts
2026-05-07 15:42 49.83334 2.76872 24268 ft 435 kts 15°
2026-05-07 15:42 49.86118 2.78764 24648 ft 440 kts 28°
2026-05-07 15:42 49.88701 2.81232 25044 ft 443 kts 31°
2026-05-07 15:42 49.91317 2.83841 25391 ft 446 kts 32°
2026-05-07 15:43 49.93911 2.86438 25731 ft 448 kts 31°
2026-05-07 15:43 49.96556 2.89072 26076 ft 451 kts 31°
2026-05-07 15:43 49.99198 2.91692 26409 ft 453 kts 31°
2026-05-07 15:43 50.01863 2.94327 26734 ft 455 kts 31°
2026-05-07 15:44 50.04561 2.96992 27049 ft 457 kts 31°
2026-05-07 15:44 50.07236 2.99636 27351 ft 459 kts 31°
2026-05-07 15:44 50.09934 3.02304 27643 ft 460 kts 31°
2026-05-07 15:44 50.12640 3.04986 28012 ft 460 kts 31°
2026-05-07 15:45 50.15322 3.07647 28426 ft 459 kts 31°
2026-05-07 15:45 50.17990 3.10298 28810 ft 458 kts 31°
2026-05-07 15:45 50.20711 3.12959 29174 ft 457 kts 29°
2026-05-07 15:45 50.23457 3.15369 29532 ft 456 kts 26°
2026-05-07 15:46 50.29176 3.19593 30223 ft 454 kts 22°
2026-05-07 15:46 50.32033 3.21579 30572 ft 453 kts 21°
2026-05-07 15:46 50.34900 3.23570 30913 ft 452 kts 22°
2026-05-07 15:47 50.37789 3.25590 31238 ft 451 kts 22°
2026-05-07 15:47 50.40610 3.27598 31536 ft 451 kts 23°
2026-05-07 15:47 50.43431 3.29751 31820 ft 451 kts 24°
2026-05-07 15:47 50.46219 3.31937 32105 ft 450 kts 24°
2026-05-07 15:48 50.49021 3.34147 32377 ft 450 kts 24°
2026-05-07 15:48 50.51833 3.36308 32633 ft 449 kts 22°
2026-05-07 15:48 50.54660 3.38300 32882 ft 448 kts 21°
2026-05-07 15:48 50.57491 3.40243 33116 ft 448 kts 21°
2026-05-07 15:49 50.60368 3.42209 33332 ft 448 kts 21°
2026-05-07 15:49 50.63212 3.44158 33510 ft 449 kts 21°
2026-05-07 15:49 50.66059 3.46116 33679 ft 450 kts 21°
2026-05-07 15:49 50.68937 3.48102 33848 ft 450 kts 21°
2026-05-07 15:50 50.71798 3.50081 34012 ft 451 kts 21°
2026-05-07 15:50 50.74663 3.52066 34177 ft 452 kts 21°
2026-05-07 15:50 50.77513 3.54044 34346 ft 452 kts 21°
2026-05-07 15:50 50.80423 3.56068 34511 ft 452 kts 21°
2026-05-07 15:51 50.83289 3.58065 34668 ft 452 kts 21°
2026-05-07 15:51 50.89053 3.62087 34214 ft 455 kts 21°
2026-05-07 15:51 50.91904 3.64081 34031 ft 453 kts 22°
2026-05-07 15:52 50.94767 3.66117 34035 ft 454 kts 22°
2026-05-07 15:52 51.00548 3.70273 34025 ft 455 kts 23°
2026-05-07 15:53 51.06303 3.74422 34031 ft 456 kts 23°
2026-05-07 15:53 51.12073 3.78593 34028 ft 456 kts 23°
2026-05-07 15:54 51.17816 3.82757 34030 ft 455 kts 23°
2026-05-07 15:54 51.23578 3.86947 34027 ft 454 kts 23°
2026-05-07 15:55 51.29300 3.91126 34035 ft 454 kts 23°
2026-05-07 15:55 51.35038 3.95336 34030 ft 454 kts 23°
2026-05-07 15:56 51.40766 3.99565 34040 ft 454 kts 24°
2026-05-07 15:56 51.46296 4.04447 34037 ft 456 kts 31°
2026-05-07 15:57 51.51439 4.10319 34039 ft 457 kts 38°
2026-05-07 15:57 51.56168 4.17079 34044 ft 457 kts 42°
2026-05-07 15:58 51.60795 4.24181 34217 ft 459 kts 43°
2026-05-07 15:58 51.63079 4.27697 34454 ft 457 kts 43°
2026-05-07 15:58 51.65369 4.31223 34663 ft 456 kts 43°
2026-05-07 15:58 51.67643 4.34725 34819 ft 455 kts 43°
2026-05-07 15:59 51.69935 4.38252 34949 ft 455 kts 43°
2026-05-07 15:59 51.74511 4.45309 35037 ft 457 kts 43°
2026-05-07 16:00 51.79104 4.52409 35040 ft 457 kts 43°
2026-05-07 16:00 51.83672 4.59490 35044 ft 457 kts 43°
2026-05-07 16:01 51.88264 4.66633 35051 ft 457 kts 44°
2026-05-07 16:01 51.92833 4.73760 35047 ft 458 kts 44°
2026-05-07 16:02 51.97415 4.80928 35049 ft 458 kts 44°
2026-05-07 16:02 52.01982 4.88096 35049 ft 458 kts 44°
2026-05-07 16:03 52.06543 4.95272 35053 ft 458 kts 44°
2026-05-07 16:03 52.11100 5.02464 35054 ft 458 kts 44°
2026-05-07 16:04 52.15656 5.09676 35061 ft 458 kts 44°
2026-05-07 16:04 52.20219 5.16922 35060 ft 458 kts 44°
2026-05-07 16:05 52.24781 5.24185 35057 ft 457 kts 44°
2026-05-07 16:05 52.29287 5.31382 35059 ft 457 kts 44°
2026-05-07 16:06 52.33817 5.38642 35056 ft 457 kts 44°
2026-05-07 16:06 52.38343 5.45915 35062 ft 456 kts 44°
2026-05-07 16:07 52.42846 5.53165 35062 ft 456 kts 44°
2026-05-07 16:07 52.47360 5.60462 35062 ft 456 kts 45°
2026-05-07 16:08 52.51846 5.67732 35064 ft 452 kts 46°
2026-05-07 16:08 52.56287 5.74966 35064 ft 449 kts 46°
2026-05-07 16:09 52.60682 5.82146 35063 ft 444 kts 45°
2026-05-07 16:09 52.65038 5.89276 35070 ft 442 kts 45°
2026-05-07 16:10 52.69378 5.96397 35070 ft 442 kts 45°
2026-05-07 16:10 52.73724 6.03549 35066 ft 443 kts 45°
2026-05-07 16:11 52.78075 6.10733 35064 ft 445 kts 45°
2026-05-07 16:11 52.82463 6.18000 35058 ft 446 kts 45°
2026-05-07 16:12 52.86823 6.25244 35056 ft 446 kts 45°
2026-05-07 16:12 52.91177 6.32503 35054 ft 446 kts 45°
2026-05-07 16:13 52.95521 6.39767 35058 ft 445 kts 45°
2026-05-07 16:13 52.99876 6.47064 35061 ft 446 kts 45°
2026-05-07 16:14 53.04230 6.54379 35063 ft 448 kts 45°
2026-05-07 16:14 53.08609 6.61765 35065 ft 450 kts 45°
2026-05-07 16:15 53.12994 6.69182 35075 ft 450 kts 46°
2026-05-07 16:15 53.17349 6.76579 35074 ft 449 kts 46°
2026-05-07 16:16 53.21673 6.83941 35070 ft 444 kts 46°
2026-05-07 16:16 53.25957 6.91254 35070 ft 441 kts 46°
2026-05-07 16:17 53.30215 6.98546 35065 ft 439 kts 46°
2026-05-07 16:17 53.34494 7.05894 35066 ft 442 kts 46°
2026-05-07 16:18 53.38784 7.13285 35065 ft 450 kts 46°
2026-05-07 16:18 53.43146 7.20818 35071 ft 454 kts 46°
2026-05-07 16:19 53.47529 7.28437 35070 ft 456 kts 46°
2026-05-07 16:19 53.51844 7.35937 35077 ft 437 kts 46°
2026-05-07 16:20 53.56028 7.43243 35074 ft 435 kts 45°
2026-05-07 16:20 53.60186 7.50517 35048 ft 434 kts 46°
2026-05-07 16:21 53.64349 7.57822 35067 ft 434 kts 45°
2026-05-07 16:21 53.68474 7.65076 35086 ft 434 kts 47°
2026-05-07 16:22 53.72700 7.72535 35106 ft 433 kts 47°
2026-05-07 16:22 53.76843 7.79882 35096 ft 432 kts 47°
2026-05-07 16:23 53.80951 7.87186 35087 ft 431 kts 47°
2026-05-07 16:23 53.85040 7.94489 35088 ft 429 kts 46°
2026-05-07 16:24 53.88909 8.01393 35092 ft 427 kts 47°
2026-05-07 16:24 53.92988 8.08705 35092 ft 427 kts 47°
2026-05-07 16:25 53.97044 8.16005 35086 ft 427 kts 47°
2026-05-07 16:25 54.01100 8.23324 35084 ft 427 kts 47°
2026-05-07 16:26 54.05163 8.30674 35085 ft 427 kts 47°
2026-05-07 16:26 54.09241 8.38075 35089 ft 428 kts 47°
2026-05-07 16:27 54.13274 8.45417 35089 ft 428 kts 47°
2026-05-07 16:27 54.17375 8.52908 35088 ft 428 kts 47°
2026-05-07 16:28 54.21421 8.60322 35086 ft 429 kts 47°
2026-05-07 16:28 54.25493 8.67807 35091 ft 430 kts 47°
2026-05-07 16:29 54.29556 8.75297 35091 ft 431 kts 47°
2026-05-07 16:29 54.33600 8.82774 35090 ft 431 kts 47°
2026-05-07 16:30 54.37648 8.90280 35093 ft 431 kts 47°
2026-05-07 16:30 54.41717 8.97851 35087 ft 430 kts 47°
2026-05-07 16:31 54.45762 9.05402 35090 ft 431 kts 47°
2026-05-07 16:31 54.49797 9.12958 35097 ft 432 kts 47°
2026-05-07 16:32 54.53840 9.20553 35094 ft 431 kts 47°
2026-05-07 16:32 54.57870 9.28148 35090 ft 432 kts 47°
2026-05-07 16:33 54.61919 9.35802 35093 ft 431 kts 47°
2026-05-07 16:33 54.65935 9.43419 35096 ft 432 kts 47°
2026-05-07 16:34 54.69964 9.51086 35098 ft 432 kts 47°
2026-05-07 16:34 54.73975 9.58744 35104 ft 431 kts 47°
2026-05-07 16:35 54.77999 9.66457 35102 ft 431 kts 48°
2026-05-07 16:35 54.82010 9.74152 35108 ft 431 kts 47°
2026-05-07 16:36 54.86178 9.81607 35116 ft 431 kts 45°
2026-05-07 16:36 54.90364 9.88988 35127 ft 430 kts 45°
2026-05-07 16:37 54.94529 9.96365 35123 ft 430 kts 45°
2026-05-07 16:37 54.98706 10.03796 35120 ft 429 kts 45°
2026-05-07 16:38 55.02848 10.11193 35108 ft 429 kts 45°
2026-05-07 16:38 55.07000 10.18629 35113 ft 430 kts 45°
2026-05-07 16:39 55.11162 10.26109 35099 ft 430 kts 45°
2026-05-07 16:39 55.15317 10.33600 35107 ft 430 kts 45°
2026-05-07 16:40 55.19454 10.41081 35101 ft 430 kts 45°
2026-05-07 16:40 55.23580 10.48572 35098 ft 430 kts 45°
2026-05-07 16:41 55.27718 10.56104 35102 ft 431 kts 45°
2026-05-07 16:41 55.31871 10.63684 35099 ft 432 kts 45°
2026-05-07 16:42 55.36025 10.71294 35107 ft 432 kts 46°
2026-05-07 16:42 55.40166 10.78905 35107 ft 432 kts 46°
2026-05-07 16:43 55.44337 10.86600 35107 ft 432 kts 45°
2026-05-07 16:43 55.48558 10.94409 35108 ft 433 kts 45°
2026-05-07 16:44 55.52681 11.02060 35110 ft 433 kts 45°
2026-05-07 16:44 55.56816 11.09759 35112 ft 434 kts 45°
2026-05-07 16:45 55.60974 11.17526 35112 ft 435 kts 45°
2026-05-07 16:45 55.65113 11.25286 35111 ft 435 kts 45°
2026-05-07 16:46 55.69228 11.33025 35111 ft 435 kts 45°
2026-05-07 16:46 55.73364 11.40831 35112 ft 436 kts 45°
2026-05-07 16:47 55.77491 11.48640 35111 ft 437 kts 45°
2026-05-07 16:47 55.81641 11.56522 35112 ft 437 kts 45°
2026-05-07 16:48 55.85759 11.64372 35111 ft 437 kts 45°
2026-05-07 16:48 55.89881 11.72255 35111 ft 437 kts 46°
2026-05-07 16:49 55.94014 11.80186 35112 ft 437 kts 46°
2026-05-07 16:49 55.98129 11.88107 35112 ft 438 kts 46°
2026-05-07 16:50 56.02259 11.96083 35113 ft 439 kts 46°
2026-05-07 16:50 56.06384 12.04077 35112 ft 439 kts 46°
2026-05-07 16:51 56.10506 12.12096 35110 ft 437 kts 46°
2026-05-07 16:51 56.14637 12.20160 35108 ft 437 kts 46°
2026-05-07 16:52 56.18727 12.28169 35104 ft 438 kts 46°
2026-05-07 16:52 56.22876 12.36318 35104 ft 438 kts 46°
2026-05-07 16:53 56.26992 12.44432 35101 ft 439 kts 46°
2026-05-07 16:53 56.31096 12.52552 35100 ft 439 kts 46°
2026-05-07 16:54 56.35192 12.60684 35097 ft 439 kts 45°
2026-05-07 16:54 56.39270 12.68807 35097 ft 439 kts 46°
2026-05-07 16:55 56.43331 12.76929 35095 ft 439 kts 46°
2026-05-07 16:55 56.47420 12.85131 35095 ft 440 kts 46°
2026-05-07 16:56 56.51485 12.93308 35094 ft 441 kts 46°
2026-05-07 16:56 56.57630 13.05731 35083 ft 441 kts 46°
2026-05-07 16:57 56.61700 13.13996 35079 ft 442 kts 46°
2026-05-07 16:57 56.65785 13.22318 35069 ft 442 kts 46°
2026-05-07 16:58 56.69844 13.30619 35064 ft 443 kts 46°
2026-05-07 16:58 56.73923 13.38990 35056 ft 444 kts 45°
2026-05-07 16:59 56.78024 13.47435 35048 ft 444 kts 46°
2026-05-07 16:59 56.82093 13.55844 35043 ft 445 kts 45°
2026-05-07 17:00 56.86166 13.64293 35039 ft 445 kts 45°
2026-05-07 17:00 56.90234 13.72759 35035 ft 446 kts 46°
2026-05-07 17:01 56.94325 13.81303 35033 ft 446 kts 46°
2026-05-07 17:01 56.98403 13.89861 35029 ft 448 kts 46°
2026-05-07 17:02 57.02484 13.98448 35027 ft 448 kts 46°
2026-05-07 17:02 57.06552 14.07037 35035 ft 448 kts 46°
2026-05-07 17:03 57.10626 14.15670 35035 ft 448 kts 46°
2026-05-07 17:03 57.14676 14.24286 35047 ft 448 kts 46°
2026-05-07 17:04 57.18757 14.32998 35053 ft 448 kts 46°
2026-05-07 17:04 57.22752 14.41570 35060 ft 438 kts 46°
2026-05-07 17:05 57.26708 14.50072 35059 ft 438 kts 46°
2026-05-07 17:05 57.30648 14.58577 35059 ft 439 kts 46°
2026-05-07 17:06 57.34615 14.67169 35063 ft 439 kts 47°
2026-05-07 17:06 57.38571 14.75772 35071 ft 439 kts 47°
2026-05-07 17:07 57.42498 14.84341 35077 ft 439 kts 47°
2026-05-07 17:07 57.46463 14.93023 35076 ft 440 kts 47°
2026-05-07 17:08 57.50407 15.01693 35075 ft 441 kts 46°
2026-05-07 17:08 57.54338 15.10369 35078 ft 442 kts 46°
2026-05-07 17:09 57.58282 15.19105 35078 ft 442 kts 46°
2026-05-07 17:09 57.62207 15.27830 35078 ft 442 kts 46°
2026-05-07 17:10 57.66145 15.36615 35078 ft 443 kts 46°
2026-05-07 17:10 57.70060 15.45381 35084 ft 442 kts 46°
2026-05-07 17:11 57.73989 15.54210 35080 ft 443 kts 46°
2026-05-07 17:11 57.77895 15.63027 35083 ft 444 kts 46°
2026-05-07 17:12 57.81849 15.71986 35084 ft 446 kts 47°
2026-05-07 17:12 57.85775 15.80918 35086 ft 446 kts 46°
2026-05-07 17:13 57.89834 15.89697 35084 ft 444 kts 42°
2026-05-07 17:13 57.94313 15.97516 35086 ft 441 kts 35°
2026-05-07 17:14 57.99102 16.04668 35032 ft 441 kts 33°
2026-05-07 17:14 58.01516 16.08228 34829 ft 440 kts 33°
2026-05-07 17:14 58.03921 16.11784 34564 ft 441 kts 33°
2026-05-07 17:15 58.06327 16.15354 34263 ft 443 kts 33°
2026-05-07 17:15 58.08717 16.18911 33747 ft 445 kts 33°
2026-05-07 17:15 58.11143 16.22537 33222 ft 446 kts 33°
2026-05-07 17:15 58.13583 16.26191 32705 ft 447 kts 33°
2026-05-07 17:16 58.16000 16.29819 32194 ft 448 kts 33°
2026-05-07 17:16 58.18460 16.33519 31675 ft 449 kts 34°
2026-05-07 17:16 58.20898 16.37191 31167 ft 452 kts 34°
2026-05-07 17:16 58.23350 16.40918 30653 ft 455 kts 35°
2026-05-07 17:17 58.25715 16.44866 30125 ft 458 kts 38°
2026-05-07 17:17 58.27980 16.49125 29596 ft 462 kts 42°
2026-05-07 17:17 58.30120 16.53668 29073 ft 465 kts 45°
2026-05-07 17:17 58.32136 16.58500 28546 ft 468 kts 49°
2026-05-07 17:18 58.34080 16.63438 28017 ft 470 kts 50°
2026-05-07 17:18 58.36020 16.68441 27496 ft 471 kts 50°
2026-05-07 17:18 58.37959 16.73463 26968 ft 473 kts 51°
2026-05-07 17:18 58.39884 16.78443 26450 ft 474 kts 51°
2026-05-07 17:19 58.41857 16.83551 25923 ft 476 kts 50°
2026-05-07 17:19 58.43820 16.88631 25399 ft 478 kts 51°
2026-05-07 17:19 58.45759 16.93658 24891 ft 479 kts 51°
2026-05-07 17:19 58.47733 16.98785 24375 ft 481 kts 51°
2026-05-07 17:20 58.49707 17.03918 23862 ft 482 kts 51°
2026-05-07 17:20 58.51691 17.09094 23367 ft 482 kts 51°
2026-05-07 17:20 58.53667 17.14257 22863 ft 483 kts 51°
2026-05-07 17:20 58.55645 17.19437 22358 ft 483 kts 51°
2026-05-07 17:21 58.57602 17.24571 21872 ft 483 kts 51°
2026-05-07 17:21 58.59586 17.29791 21368 ft 483 kts 51°
2026-05-07 17:21 58.61541 17.34944 20875 ft 475 kts 51°
2026-05-07 17:21 58.63459 17.40015 20372 ft 466 kts 51°
2026-05-07 17:22 58.65340 17.44996 19880 ft 458 kts 51°
2026-05-07 17:22 58.67178 17.49875 19372 ft 446 kts 50°
2026-05-07 17:22 58.68938 17.54559 18873 ft 423 kts 50°
2026-05-07 17:22 58.70612 17.59025 18368 ft 403 kts 50°
2026-05-07 17:23 58.72191 17.63240 17868 ft 385 kts 50°
2026-05-07 17:23 58.73724 17.67336 17356 ft 369 kts 51°
2026-05-07 17:23 58.75190 17.71256 16849 ft 357 kts 51°
2026-05-07 17:23 58.76612 17.75067 16342 ft 346 kts 51°
2026-05-07 17:24 58.77992 17.78771 15834 ft 339 kts 51°
2026-05-07 17:24 58.79356 17.82433 15330 ft 334 kts 51°
2026-05-07 17:24 58.80788 17.85880 14820 ft 327 kts 43°
2026-05-07 17:24 58.82451 17.88769 14309 ft 319 kts 33°
2026-05-07 17:25 58.84288 17.91043 13807 ft 312 kts 24°
2026-05-07 17:25 58.86201 17.92903 13302 ft 307 kts 21°
2026-05-07 17:25 58.88107 17.94669 12792 ft 304 kts 21°
2026-05-07 17:25 58.89994 17.96413 12288 ft 301 kts 21°
2026-05-07 17:26 58.91865 17.98158 11787 ft 298 kts 22°
2026-05-07 17:26 58.93717 17.99896 11304 ft 294 kts 22°
2026-05-07 17:26 58.95491 18.01574 11114 ft 284 kts 22°
2026-05-07 17:26 58.97271 18.03261 11117 ft 285 kts 22°
2026-05-07 17:27 58.99055 18.04952 11112 ft 286 kts 22°
2026-05-07 17:27 59.00843 18.06651 11115 ft 286 kts 22°
2026-05-07 17:27 59.02625 18.08347 11111 ft 286 kts 22°
2026-05-07 17:27 59.04409 18.10047 11107 ft 287 kts 22°
2026-05-07 17:28 59.06183 18.11739 11112 ft 287 kts 22°
2026-05-07 17:28 59.08012 18.13347 11105 ft 285 kts 17°
2026-05-07 17:28 59.09895 18.14543 11094 ft 283 kts 10°
2026-05-07 17:28 59.11805 18.15304 11093 ft 281 kts
2026-05-07 17:29 59.13753 18.15671 11094 ft 279 kts 360°
2026-05-07 17:29 59.15690 18.15901 11120 ft 277 kts 359°
2026-05-07 17:29 59.17551 18.16113 11102 ft 263 kts 359°
2026-05-07 17:29 59.19348 18.16318 11110 ft 255 kts 359°
2026-05-07 17:30 59.21109 18.16515 11098 ft 255 kts 359°
2026-05-07 17:30 59.22887 18.16718 11072 ft 255 kts 359°
2026-05-07 17:30 59.24645 18.16922 11066 ft 253 kts 359°
2026-05-07 17:30 59.26391 18.17125 10841 ft 251 kts 359°
2026-05-07 17:31 59.28143 18.17405 10418 ft 254 kts
2026-05-07 17:31 59.29898 18.17771 10011 ft 253 kts
2026-05-07 17:31 59.31615 18.18141 9629 ft 251 kts
2026-05-07 17:31 59.33342 18.18509 9281 ft 249 kts
2026-05-07 17:32 59.35035 18.18864 9114 ft 238 kts
2026-05-07 17:32 59.36631 18.19203 9102 ft 226 kts
2026-05-07 17:32 59.38193 18.19537 9114 ft 226 kts
2026-05-07 17:32 59.39218 18.19756 9116 ft 226 kts
2026-05-07 17:33 59.41320 18.20209 9112 ft 226 kts
2026-05-07 17:33 59.42868 18.20543 9114 ft 226 kts
2026-05-07 17:33 59.44436 18.20885 9115 ft 227 kts
2026-05-07 17:33 59.46004 18.21227 9117 ft 227 kts
2026-05-07 17:34 59.47570 18.21568 9134 ft 227 kts
2026-05-07 17:34 59.49137 18.21909 9082 ft 225 kts
2026-05-07 17:34 59.50662 18.22242 8802 ft 223 kts
2026-05-07 17:34 59.52203 18.22569 8430 ft 224 kts
2026-05-07 17:35 59.53743 18.22886 8097 ft 223 kts
2026-05-07 17:35 59.55277 18.23192 7763 ft 222 kts
2026-05-07 17:35 59.56811 18.23485 7428 ft 221 kts
2026-05-07 17:35 59.58341 18.23760 7096 ft 220 kts
2026-05-07 17:36 59.59864 18.23992 6763 ft 219 kts 360°
2026-05-07 17:36 59.61356 18.24036 6442 ft 217 kts 358°
2026-05-07 17:36 59.62849 18.24016 6350 ft 213 kts 358°
2026-05-07 17:36 59.64323 18.23977 6156 ft 213 kts 358°
2026-05-07 17:37 59.65806 18.23925 6017 ft 212 kts 358°
2026-05-07 17:37 59.67276 18.23865 5739 ft 213 kts 358°
2026-05-07 17:37 59.68761 18.23791 5376 ft 214 kts 358°
2026-05-07 17:37 59.70242 18.23699 5123 ft 211 kts 357°
2026-05-07 17:38 59.71692 18.23373 5121 ft 214 kts 349°
2026-05-07 17:38 59.73164 18.22789 5128 ft 215 kts 348°
2026-05-07 17:38 59.74617 18.22157 5111 ft 213 kts 347°
2026-05-07 17:38 59.76052 18.21517 4854 ft 212 kts 348°
2026-05-07 17:39 59.77487 18.20857 4483 ft 214 kts 348°
2026-05-07 17:39 59.78923 18.20121 4169 ft 213 kts 340°
2026-05-07 17:39 59.80122 18.18404 4134 ft 218 kts 314°
2026-05-07 17:39 59.81080 18.16047 4132 ft 220 kts 309°
2026-05-07 17:40 59.81979 18.13607 4019 ft 216 kts 308°
2026-05-07 17:40 59.82742 18.11028 3636 ft 221 kts 287°
2026-05-07 17:40 59.82761 18.08011 3301 ft 223 kts 251°
2026-05-07 17:40 59.81935 18.05551 3152 ft 209 kts 216°
2026-05-07 17:41 59.80671 18.04446 2974 ft 193 kts 192°
2026-05-07 17:41 59.79444 18.03483 2674 ft 192 kts 214°
2026-05-07 17:41 59.78488 18.01629 2626 ft 193 kts 221°
2026-05-07 17:41 59.77343 18.00349 2587 ft 190 kts 194°
2026-05-07 17:42 59.76066 17.99798 2361 ft 187 kts 185°
2026-05-07 17:42 59.74840 17.99442 2151 ft 173 kts 184°
2026-05-07 17:42 59.73696 17.99079 1886 ft 159 kts 185°
2026-05-07 17:42 59.72653 17.98708 1642 ft 145 kts 185°
2026-05-07 17:43 59.71662 17.98346 1463 ft 145 kts 185°
2026-05-07 17:43 59.70683 17.97989 1291 ft 144 kts 185°
2026-05-07 17:43 59.69699 17.97630 1102 ft 143 kts 185°
2026-05-07 17:43 59.68722 17.97274 908 ft 143 kts 185°
2026-05-07 17:44 59.67757 17.96923 715 ft 142 kts 186°
2026-05-07 17:44 59.66788 17.96571 526 ft 140 kts 186°
2026-05-07 17:44 59.65830 17.96220 325 ft 140 kts 186°
2026-05-07 17:44 59.64887 17.95884 161 ft 138 kts 187°
2026-05-07 17:45 59.64055 17.95591 111 ft 84 kts 191°
2026-05-07 17:45 59.63650 17.95440 119 ft 35 kts 190°
2026-05-07 17:45 59.63517 17.95377 122 ft 15 kts 198°
2026-05-07 17:45 59.63423 17.95303 125 ft 13 kts 207°
2026-05-07 17:46 59.63349 17.95207 127 ft 12 kts 218°
2026-05-07 17:46 59.63292 17.95113 128 ft 9 kts 220°
2026-05-07 17:46 59.63247 17.95015 129 ft 9 kts 246°
2026-05-07 17:46 59.63279 17.94913 127 ft 11 kts 353°
2026-05-07 17:47 59.63366 17.94929 126 ft 13 kts
2026-05-07 17:47 59.63468 17.94964 123 ft 16 kts 11°
2026-05-07 17:47 59.63584 17.95012 120 ft 18 kts 13°
2026-05-07 17:47 59.63714 17.95056 116 ft 19 kts 10°
2026-05-07 17:48 59.63852 17.95106 113 ft 20 kts 10°
2026-05-07 17:48 59.63997 17.95158 110 ft 21 kts 11°
2026-05-07 17:48 59.64148 17.95212 108 ft 22 kts 10°
2026-05-07 17:48 59.64302 17.95268 106 ft 22 kts 10°
2026-05-07 17:49 59.64454 17.95324 106 ft 22 kts 10°
2026-05-07 17:49 59.64607 17.95380 106 ft 22 kts 10°
2026-05-07 17:49 59.64762 17.95436 107 ft 22 kts 10°
2026-05-07 17:49 59.64915 17.95491 108 ft 23 kts 10°
2026-05-07 17:50 59.65082 17.95492 110 ft 24 kts 346°
2026-05-07 17:50 59.65247 17.95405 115 ft 23 kts 345°
2026-05-07 17:50 59.65396 17.95326 118 ft 21 kts 345°
2026-05-07 17:50 59.65530 17.95255 122 ft 17 kts 345°
2026-05-07 17:51 59.65638 17.95198 124 ft 15 kts 345°
2026-05-07 17:51 59.65695 17.95168 125 ft 5 kts 345°
2026-05-07 17:51 59.65718 17.95155 125 ft 0 kts 344°
2026-05-07 17:51 59.65726 17.95147 125 ft 3 kts 328°
2026-05-07 17:52 59.65751 17.95072 126 ft 9 kts 281°
2026-05-07 17:52 59.65737 17.94900 126 ft 15 kts 256°
2026-05-07 17:52 59.65706 17.94663 126 ft 19 kts 255°
2026-05-07 17:52 59.65673 17.94396 124 ft 20 kts 256°
2026-05-07 17:53 59.65637 17.94122 121 ft 21 kts 256°
2026-05-07 17:53 59.65606 17.93894 117 ft 12 kts 229°
2026-05-07 17:53 59.65521 17.93889 117 ft 13 kts 167°
2026-05-07 17:53 59.65428 17.93936 116 ft 14 kts 165°
2026-05-07 17:54 59.65362 17.93932 115 ft 7 kts 243°
2026-05-07 17:54 59.65353 17.93856 114 ft 6 kts 255°
2026-05-07 17:54 59.65348 17.93820 114 ft 0 kts 255°